[[{"header":{"parameterUnit":"m.s-1","parameterCategory":1,"la1":30.2991,"la2":30.254,"lo1":-89.0895,"lo2":-89.0444,"dy":0.0017,"dx":0.0017,"nx":28,"ny":28,"refTime":"2023-07-29T03:00:00:Z","depth":0,"parameterNumber":2,"parameterNumberName":"U-component_of_WINDS"},"data":[0,0,0,0,0,0,0,0,0,0,0,0,0,0,0,0,0,0,0,0,0,0,0,0,0,0,0,0,0,0,0,0,0,0,0,0,0,0,0,0,0,0,0,0,0,0,0,0,0,0,0,0,0,0,0,0,0,0,0.6147,0.6149,0,0.6296,0.6297,0.6299,0.6366,0.6366,0.6366,0.6366,0.6517,0.6521,0.6525,0,0,0,0,0,0,0,0,0,0,0,0,0,0.5921,0.5925,0.6147,0.6149,0.6151,0.6295,0.6298,0.63,0.6366,0.6366,0.6366,0.6366,0.6515,0.652,0.6525,0,0,0,0,0,0,0,0,0,0,0,0,0,0.6039,0.5926,0.6147,0.6202,0.6208,0.6295,0.6298,0.63,0.6366,0.6366,0.6366,0.6366,0.6514,0.652,0.6526,0.6569,0,0,0.6545,0.6548,0,0,0,0,0,0,0,0,0.6033,0.6048,0.6192,0.6198,0.6205,0.6312,0.6273,0.639,0.6367,0.6306,0.6366,0.6366,0.6449,0.646,0.6489,0.6576,0.6582,0.6546,0.6549,0.6552,0.6554,0,0,0,0,0,0,0,0.6024,0.6042,0.6206,0.6194,0.6202,0.6219,0.6235,0.6296,0.6377,0.6312,0.6317,0.6334,0.6452,0.6482,0.6493,0.6585,0.6545,0.6551,0.6555,0.6557,0.6717,0.6717,0,0,0,0,0,0,0.6007,0.6034,0.6201,0.621,0.6117,0.6223,0.6242,0.6278,0.6377,0.6391,0.6334,0.6336,0.6472,0.6485,0.6498,0.6556,0.6552,0.6558,0.6561,0.6716,0.6717,0.6717,0,0,0,0,0,0,0.6002,0.6022,0.6195,0.6124,0.6147,0.6227,0.6268,0.6281,0.6311,0.6393,0.6408,0.6349,0.6472,0.6489,0.6551,0.6562,0.6561,0.6566,0.6716,0.6717,0.6717,0.6671,0,0,0,0,0,0,0.5995,0.6019,0.6036,0.6124,0.6151,0.6246,0.6269,0.6284,0.6322,0.6327,0.6412,0.6426,0.6473,0.6542,0.6558,0.6571,0.6571,0.6715,0.6716,0.6717,0.6672,0.6671,0.6669,0,0,0,0,0,0.5987,0.6017,0.6037,0.6057,0.6174,0.6246,0.6261,0.6316,0.6323,0.6341,0.6394,0.6423,0.6559,0.6547,0.6566,0.6581,0.6715,0.6716,0.6717,0.6673,0.6671,0.6669,0,0,0,0,0,0,0.5927,0.6029,0.6052,0.6111,0.617,0.6257,0.6281,0.6312,0.6369,0.6371,0.6436,0.6455,0.6511,0.6553,0.6538,0.6629,0.6639,0.6644,0.66,0.6598,0.6597,0.6585,0.6576,0,0,0,0,0,0.5921,0.5972,0.6058,0.6101,0.613,0.62,0.6234,0.6271,0.6334,0.6359,0.6416,0.6476,0.6532,0.6568,0.6624,0.6679,0.6699,0.6699,0.6697,0.6695,0.6699,0.6732,0.6733,0.6721,0.6721,0.6721,0,0,0.5908,0.597,0.5998,0.6091,0.6141,0.6191,0.6221,0.6273,0.6311,0.6367,0.6429,0.6473,0.6544,0.6603,0.6632,0.6639,0.6707,0.6697,0.6695,0.6699,0.6734,0.6735,0.6736,0.6722,0.6722,0.6722,0,0,0.5911,0.5963,0.6006,0.6056,0.6131,0.6178,0.6188,0.6272,0.6304,0.6368,0.6411,0.6458,0.6553,0.6602,0.6639,0.6664,0.6693,0.668,0.6671,0.6703,0.6704,0.6705,0.6714,0.6717,0.6683,0.6683,0.6683,0,0.5886,0.5965,0.6024,0.6074,0.6114,0.6168,0.6212,0.6257,0.6347,0.6373,0.638,0.6502,0.6554,0.6626,0.6632,0.666,0.6674,0.667,0.6699,0.6701,0.6703,0.6713,0.6716,0.6681,0.6681,0.6681,0.6682,0,0.593,0.5984,0.601,0.6096,0.6139,0.6186,0.6252,0.6289,0.6323,0.6369,0.6434,0.6498,0.6569,0.6589,0.6622,0.6666,0.6669,0.6687,0.6698,0.6701,0.6711,0.6715,0.6678,0.6679,0.6679,0.668,0,0,0.5898,0.6018,0.6026,0.6067,0.6155,0.6198,0.6247,0.6318,0.6348,0.6408,0.6452,0.6532,0.655,0.6593,0.6633,0.6661,0.6677,0.6676,0.6678,0.6674,0.673,0.6716,0.6719,0.6697,0.6698,0.6699,0.6724,0,0.5913,0.6005,0.6061,0.613,0.6182,0.6235,0.6278,0.6337,0.6382,0.6433,0.6483,0.6539,0.6558,0.6584,0.6614,0.6668,0.6689,0.6667,0.6739,0.674,0.6719,0.6724,0.6709,0.673,0.6729,0.6729,0.673,0,0.5942,0.6003,0.6078,0.6162,0.6186,0.6224,0.6294,0.6341,0.6409,0.644,0.6489,0.6529,0.6584,0.6592,0.667,0.6654,0.6686,0.6717,0.672,0.6728,0.6735,0.6733,0.6738,0.674,0.6736,0.6736,0.6735,0,0.5912,0.6012,0.6071,0.6103,0.6203,0.6229,0.6271,0.6339,0.6379,0.644,0.6466,0.6532,0.6568,0.6619,0.6676,0.6676,0.6748,0.676,0.6776,0.6774,0.6788,0.6786,0.6798,0.6809,0.6809,0.6809,0.6809,0,0.5923,0.5967,0.6058,0.6094,0.6145,0.6209,0.6258,0.6305,0.6365,0.6411,0.6461,0.6503,0.6577,0.6628,0.6673,0.6731,0.6747,0.6774,0.6785,0.6769,0.6766,0.6791,0.6791,0.681,0.6809,0.6809,0.6809,0,0.5897,0.596,0.6027,0.6117,0.614,0.6174,0.625,0.6287,0.6336,0.6394,0.6411,0.6487,0.6551,0.6613,0.6698,0.6728,0.6785,0.6801,0.6762,0.6769,0.6781,0.6779,0.6809,0.6817,0.6822,0.6822,0.6822,0,0.5899,0.5935,0.6029,0.6063,0.6105,0.616,0.6201,0.6266,0.6307,0.6389,0.6416,0.6483,0.654,0.6638,0.6701,0.6767,0.6784,0.679,0.6794,0.6778,0.6785,0.6782,0.6786,0.6788,0.6788,0.6787,0.6787,0,0.5897,0.5928,0.5985,0.6054,0.6101,0.6158,0.6217,0.6243,0.6319,0.6362,0.6428,0.6472,0.656,0.6626,0.6699,0.6743,0.6778,0.6786,0.6793,0.6777,0.6753,0.6766,0.6757,0.6784,0.6785,0.6785,0.6785,0.6785,0.5886,0.5921,0.5993,0.6055,0.6107,0.6161,0.6201,0.6255,0.6311,0.6388,0.6423,0.6489,0.6559,0.6661,0.6704,0.6757,0.6766,0.6776,0.6779,0.678,0.6777,0.6745,0.6771,0.6771,0.6771,0.6771,0.6772,0,0.5887,0.5937,0.5994,0.6075,0.6125,0.6155,0.6222,0.6261,0.6319,0.6381,0.6437,0.6513,0.6578,0.6647,0.6716,0.6745,0.6763,0.6761,0.6759,0.6769,0.6765,0.6752,0.6746,0.6746,0.6746,0.6746,0.6746,0.6746,0.5893,0.5954,0.5993,0.6079,0.6129,0.6195,0.6231,0.6281,0.6331,0.6414,0.6469,0.6514,0.6579,0.6654,0.6715,0.6734,0.6757,0.675,0.6773,0.6768,0.6769,0.6771,0.6759,0.6755,0.6755,0.6774,0.6774,0.6774]},{"header":{"parameterUnit":"m.s-1","parameterCategory":1,"la1":30.2991,"la2":30.254,"lo1":-89.0895,"lo2":-89.0444,"dy":0.0017,"dx":0.0017,"nx":28,"ny":28,"refTime":"2023-07-29T03:00:00:Z","depth":0,"parameterNumber":3,"parameterNumberName":"V-component_of_WINDS"},"data":[0,0,0,0,0,0,0,0,0,0,0,0,0,0,0,0,0,0,0,0,0,0,0,0,0,0,0,0,0,0,0,0,0,0,0,0,0,0,0,0,0,0,0,0,0,0,0,0,0,0,0,0,0,0,0,0,0,0,3.5384,3.5384,0,3.5385,3.5385,3.5385,3.5335,3.5333,3.5332,3.5331,3.5331,3.5332,3.5333,0,0,0,0,0,0,0,0,0,0,0,0,0,3.5338,3.5339,3.5384,3.5384,3.5384,3.5385,3.5385,3.5385,3.5335,3.5333,3.5332,3.533,3.533,3.5332,3.5333,0,0,0,0,0,0,0,0,0,0,0,0,0,3.5351,3.534,3.5384,3.536,3.5357,3.5385,3.5385,3.5385,3.5335,3.5333,3.5331,3.5329,3.533,3.5332,3.5334,3.5385,0,0,3.5339,3.534,0,0,0,0,0,0,0,0,3.535,3.5352,3.5363,3.5361,3.5359,3.5358,3.5368,3.5385,3.5336,3.5344,3.5331,3.5328,3.5341,3.5342,3.5347,3.5385,3.5385,3.5339,3.5341,3.5341,3.5342,0,0,0,0,0,0,0,3.5349,3.5352,3.5384,3.5363,3.5361,3.5348,3.5347,3.5371,3.5354,3.5343,3.5339,3.534,3.534,3.5345,3.5346,3.5385,3.5339,3.5341,3.5342,3.5343,3.5463,3.5465,0,0,0,0,0,0,3.5352,3.5352,3.5384,3.5384,3.5349,3.535,3.535,3.536,3.5353,3.535,3.5342,3.5338,3.5343,3.5344,3.5346,3.5404,3.5341,3.5343,3.5344,3.5461,3.5463,3.5465,0,0,0,0,0,0,3.5351,3.5355,3.5384,3.5367,3.537,3.5353,3.5365,3.5361,3.5366,3.5352,3.5349,3.535,3.5341,3.5343,3.5375,3.5404,3.5344,3.5346,3.5458,3.5461,3.5464,3.5522,0,0,0,0,0,0,3.535,3.5355,3.5375,3.5368,3.5371,3.5414,3.5367,3.5363,3.537,3.5364,3.5359,3.5357,3.534,3.5373,3.5377,3.5405,3.5347,3.5455,3.546,3.5463,3.5518,3.5527,3.5535,0,0,0,0,0,3.5349,3.5392,3.5377,3.5381,3.5396,3.5416,3.5418,3.5398,3.5372,3.5391,3.5382,3.5357,3.54,3.5376,3.5381,3.541,3.5454,3.5458,3.5463,3.5514,3.5525,3.5534,0,0,0,0,0,0,3.5404,3.5391,3.5373,3.5416,3.5417,3.5408,3.5432,3.541,3.5419,3.5414,3.5388,3.5387,3.5423,3.5419,3.5393,3.5458,3.5422,3.5428,3.5459,3.547,3.5478,3.5478,3.5349,0,0,0,0,0,3.5421,3.5439,3.5426,3.5465,3.5466,3.5449,3.5457,3.5441,3.5442,3.5442,3.5435,3.5437,3.545,3.5459,3.5471,3.5516,3.5514,3.5538,3.5547,3.5554,3.556,3.5582,3.5592,3.5481,3.5481,3.548,0,0,3.5456,3.5451,3.5465,3.5476,3.5475,3.5494,3.545,3.5472,3.5485,3.5445,3.5475,3.547,3.5469,3.5507,3.5524,3.5506,3.559,3.556,3.5566,3.5567,3.5588,3.5598,3.5608,3.5484,3.5483,3.5483,0,0,3.5531,3.5529,3.556,3.556,3.5559,3.5547,3.5554,3.5547,3.5542,3.5571,3.5541,3.5556,3.558,3.5581,3.5584,3.5656,3.5633,3.566,3.5705,3.5727,3.5736,3.5744,3.5769,3.5778,3.5666,3.5666,3.5666,0,3.5575,3.5603,3.5579,3.5603,3.5608,3.5572,3.5602,3.5603,3.5607,3.5611,3.559,3.5618,3.5615,3.5653,3.567,3.5674,3.5681,3.5661,3.5737,3.5744,3.5751,3.5774,3.5784,3.5669,3.5669,3.5668,3.5668,0,3.5657,3.5676,3.5701,3.5704,3.5712,3.5739,3.5719,3.573,3.5712,3.5702,3.5731,3.5726,3.5735,3.5742,3.5726,3.5777,3.5765,3.5741,3.5705,3.5765,3.5787,3.5796,3.5674,3.5673,3.5672,3.5671,0,0,3.5768,3.5756,3.5766,3.5766,3.5761,3.5775,3.5799,3.5808,3.5817,3.582,3.584,3.586,3.5837,3.584,3.5823,3.5843,3.5899,3.5816,3.5815,3.5831,3.5953,3.5972,3.5982,3.5883,3.5884,3.5886,3.5953,0,3.5839,3.5881,3.5859,3.5904,3.592,3.5885,3.5906,3.5905,3.5895,3.5907,3.5896,3.5911,3.588,3.5881,3.5899,3.5888,3.5923,3.5883,3.59,3.5901,3.5902,3.5994,3.6014,3.6078,3.5961,3.5963,3.5964,0,3.5929,3.5935,3.598,3.597,3.5977,3.5996,3.6001,3.6013,3.6011,3.6002,3.6006,3.5983,3.6006,3.5969,3.5999,3.5973,3.5978,3.5974,3.5976,3.5977,3.5937,3.5997,3.6097,3.6107,3.5977,3.5976,3.5975,0,3.6005,3.6024,3.6053,3.6054,3.6044,3.6058,3.6054,3.6049,3.6055,3.606,3.6063,3.607,3.6074,3.608,3.606,3.6035,3.6092,3.6054,3.6085,3.6086,3.61,3.6099,3.6202,3.6103,3.6103,3.6103,3.6103,0,3.6087,3.6117,3.6087,3.6105,3.6136,3.611,3.6141,3.6133,3.6129,3.6145,3.6114,3.6129,3.6102,3.6114,3.6098,3.6125,3.6127,3.612,3.6116,3.6123,3.6124,3.6127,3.6122,3.6105,3.6105,3.6104,3.6104,0,3.6178,3.6159,3.6189,3.6175,3.6172,3.6196,3.6184,3.62,3.6187,3.6207,3.621,3.619,3.6203,3.6183,3.6193,3.6183,3.6219,3.6208,3.6221,3.6217,3.6249,3.6247,3.6358,3.6371,3.6264,3.6265,3.6266,0,3.6232,3.6254,3.6242,3.625,3.6247,3.6261,3.6266,3.6241,3.6247,3.6245,3.6261,3.627,3.6277,3.6298,3.6284,3.6291,3.628,3.6318,3.6281,3.6287,3.628,3.6279,3.6281,3.6326,3.6328,3.6329,3.633,0,3.633,3.6319,3.6328,3.6333,3.634,3.6343,3.6344,3.6352,3.6325,3.6334,3.6346,3.635,3.636,3.637,3.6373,3.6369,3.6345,3.6341,3.6349,3.6357,3.6363,3.636,3.6241,3.6339,3.6338,3.6337,3.6337,3.6337,3.6404,3.6421,3.6414,3.6425,3.6422,3.6423,3.6436,3.6425,3.6434,3.644,3.6424,3.6439,3.6434,3.6436,3.6434,3.6445,3.6428,3.6439,3.6442,3.6445,3.645,3.6361,3.6445,3.6445,3.6445,3.6445,3.6444,0,3.65,3.6493,3.6503,3.6504,3.6512,3.6487,3.6486,3.6495,3.6508,3.6505,3.6511,3.6524,3.6533,3.6519,3.6525,3.6537,3.6526,3.6539,3.6538,3.6538,3.6465,3.6458,3.6548,3.6548,3.6548,3.6548,3.6548,3.6548,3.6551,3.6577,3.6565,3.6589,3.6582,3.6597,3.6598,3.6598,3.6595,3.6611,3.6617,3.6608,3.66,3.6605,3.6612,3.6607,3.6611,3.6628,3.662,3.6553,3.6543,3.6533,3.6526,3.6629,3.663,3.6692,3.6692,3.6693]}]]